TimeEST,TemperatureF,Dew PointF,Humidity,Sea Level PressureIn,VisibilityMPH,Wind Direction,Wind SpeedMPH,Gust SpeedMPH,PrecipitationIn,Events,Conditions,WindDirDegrees,DateUTC
12:53 AM,48.9,34.0,56,30.27,10.0,Calm,Calm,-,N/A,,Clear,0,2013-02-02 05:53:00
1:53 AM,48.0,35.1,61,30.27,10.0,NNE,3.5,-,N/A,,Clear,30,2013-02-02 06:53:00
2:53 AM,48.9,37.0,64,30.26,10.0,NE,9.2,-,N/A,,Clear,40,2013-02-02 07:53:00
4:53 AM,48.9,39.0,69,30.26,10.0,NNE,9.2,-,N/A,,Clear,30,2013-02-02 09:53:00
5:53 AM,46.9,39.0,74,30.27,10.0,NE,5.8,-,N/A,,Clear,50,2013-02-02 10:53:00
6:53 AM,46.9,39.0,74,30.27,10.0,NE,4.6,-,N/A,,Clear,50,2013-02-02 11:53:00
7:53 AM,50.0,39.9,68,30.29,10.0,NE,6.9,-,N/A,,Clear,50,2013-02-02 12:53:00
8:53 AM,55.9,39.9,55,30.29,10.0,NE,8.1,-,N/A,,Clear,50,2013-02-02 13:53:00
9:53 AM,62.1,39.9,44,30.29,10.0,ENE,10.4,-,N/A,,Clear,60,2013-02-02 14:53:00
10:53 AM,68.0,39.0,35,30.27,10.0,NE,11.5,-,N/A,,Clear,40,2013-02-02 15:53:00
11:53 AM,71.1,41.0,34,30.24,10.0,ENE,10.4,-,N/A,,Clear,60,2013-02-02 16:53:00
12:53 PM,72.0,43.0,35,30.21,10.0,ENE,8.1,17.3,N/A,,Clear,70,2013-02-02 17:53:00
1:53 PM,73.9,44.1,34,30.18,10.0,East,6.9,-,N/A,,Clear,100,2013-02-02 18:53:00
2:53 PM,75.0,44.1,33,30.16,10.0,ESE,5.8,-,N/A,,Clear,110,2013-02-02 19:53:00
3:53 PM,75.0,43.0,32,30.14,10.0,ESE,6.9,-,N/A,,Clear,110,2013-02-02 20:53:00
4:53 PM,73.9,43.0,33,30.14,10.0,Calm,Calm,-,N/A,,Clear,0,2013-02-02 21:53:00
5:53 PM,72.0,44.1,37,30.14,10.0,NNW,5.8,-,N/A,,Clear,330,2013-02-02 22:53:00
6:53 PM,66.0,45.0,47,30.15,10.0,NW,6.9,-,N/A,,Clear,320,2013-02-02 23:53:00
7:53 PM,63.0,50.0,63,30.17,10.0,NNW,5.8,-,N/A,,Clear,330,2013-02-03 00:53:00
8:53 PM,62.1,48.9,62,30.18,10.0,NNW,4.6,-,N/A,,Clear,340,2013-02-03 01:53:00
9:53 PM,59.0,48.0,67,30.18,10.0,Calm,Calm,-,N/A,,Clear,0,2013-02-03 02:53:00
10:53 PM,59.0,46.9,64,30.17,10.0,North,4.6,-,N/A,,Clear,350,2013-02-03 03:53:00
11:53 PM,57.0,46.0,67,30.16,10.0,NNE,4.6,-,N/A,,Clear,30,2013-02-03 04:53:00